Regional Weather Roundup
Issued by NWS

Home | Current Version | Previous Version | Text Only | Print | Product List | Glossary Off
Versions: 1 2 3 4 5 6 7 8 9 10 11 12 13 14 15 16 17 18 19 20 21 22 23 24 25 26 27 28 29 30 31 32 33 34 35 36 37 38 39 40 41 42 43 44 45 46 47 48 49 50

000
ASUS45 KBOI 010210
RWRID

IDAHO REGIONAL WEATHER ROUNDUP
NATIONAL WEATHER SERVICE BOISE ID
800 PM MDT TUE MAY 31 2016

NOTE: "FAIR" INDICATES FEW OR NO CLOUDS BELOW 12000 FEET
WITH NO SIGNIFICANT WEATHER AND/OR OBSTRUCTIONS TO VISIBILITY

IDZ012-014-010300-
SOUTHWEST IDAHO


CITY           SKY/WX    TMP DP  RH WIND       PRES   REMARKS
BOISE          SUNNY     78  22  12 NW10      29.99F
CALDWELL       SUNNY     79  28  15 W3        29.99S
MOUNTAIN HOME  SUNNY     81  26  13 NW15      29.99S
$$

IDZ016-017-010300-
SOUTHCENTRAL IDAHO


CITY           SKY/WX    TMP DP  RH WIND       PRES   REMARKS
BURLEY         SUNNY     71  32  23 W3        30.04R
JEROME         SUNNY     72  30  21 W8        30.04S
TWIN FALLS     SUNNY     71  32  23 NW5       30.05S
$$

IDZ019>023-010300-
SOUTHEAST IDAHO


CITY           SKY/WX    TMP DP  RH WIND       PRES   REMARKS
IDAHO FALLS    CLEAR     68  31  25 E5        30.09R
POCATELLO      CLEAR     69  34  27 E5        30.07S
REXBURG        CLEAR     68  29  23 CALM      30.08S
$$

IDZ006-010-011-018-031-032-010300-
CENTRAL IDAHO MOUNTAINS


CITY           SKY/WX    TMP DP  RH WIND       PRES   REMARKS
MCCALL         SUNNY     67  28  23 NW5       30.10R
HAILEY         SUNNY     66  34  30 S9        30.09S
STANLEY          N/A     65  25  22 W6        30.15R
SALMON         SUNNY     72  32  23 W6        30.00S
CHALLIS        SUNNY     69  33  26 N8        30.03R
$$

IDZ002-004-006-007-026-010300-
NORTHERN IDAHO


CITY           SKY/WX    TMP DP  RH WIND       PRES   REMARKS
LEWISTON       SUNNY     79  36  21 CALM      30.00F
LOWELL           N/A     67  45  45 CALM      30.00S
COEUR D`ALENE  MOSUNNY   73  37  27 CALM      30.01F
MULLAN PASS    SUNNY     56  30  37 VRB5      30.17S
$$



USA.gov is the U.S. government's official web portal to all federal, state and local government web resources and services.